{"data":{"norad_id":49773,"intl_designator":"2021-115BB","name":"GLOBAL-13","alt_names":[],"object_type":"PAYLOAD","status":"ACTIVE","operator":null,"country":"US","launch_date":"2021-12-02","launch_site_code":"AFETR","launch_vehicle":null,"mission":null,"orbit_class":"UNKNOWN","rcs_meters":null,"size_class":null,"mass_kg":null,"dimensions":null,"purposes":[],"wikipedia_slug":null,"has_3d_model":false,"image_url":null,"decayed_at":null,"tle_current":{"epoch":"2026-05-24T18:37:09.578784Z","epoch_age_seconds":94386,"freshness":"FRESH","line1":"1 49773U 21115BB  26144.77580531  .00012714  00000+0  27306-3 0  9998","line2":"2 49773  53.1962 165.7985 0004177  52.2994 307.8392 15.45084823252145","mean_motion":15.45084823,"eccentricity":0.0004177,"inclination_deg":53.1962,"raan_deg":165.7985,"arg_perigee_deg":52.2994,"mean_anomaly_deg":307.8392,"bstar":0.00027306,"rev_number":25214,"period_min":93.198766732045,"perigee_km":428.28461760287,"apogee_km":433.97307829225,"semimajor_km":6809.2658479476,"source":"CELESTRAK","updated_at":"2026-05-25T13:37:57.275419Z"}}}